[[{"header":{"parameterUnit":"m.s-1","parameterCategory":1,"la1":30.2991,"la2":30.254,"lo1":-89.0895,"lo2":-89.0444,"dy":0.0017,"dx":0.0017,"nx":28,"ny":28,"refTime":"2024-07-09T09:00:00:Z","depth":0,"parameterNumber":2,"parameterNumberName":"U-component_of_WINDS"},"data":[0,0,0,0,0,0,0,0,0,0,0,0,0,0,0,0,0,0,0,0,0,0,0,0,0,0,0,0,0,0,0,0,0,0,0,0,0,0,0,0,0,0,0,0,0,0,0,0,0,0,0,0,0,0,0,0,0,0,4.079,4.0791,0,4.0968,4.097,4.0972,4.0935,4.0932,4.0928,4.0925,4.1111,4.1119,4.1127,0,0,0,0,0,0,0,0,0,0,0,0,0,4.0417,4.0424,4.0789,4.0792,4.0794,4.0967,4.097,4.0972,4.0935,4.0931,4.0927,4.0924,4.1109,4.1118,4.1128,0,0,0,0,0,0,0,0,0,0,0,0,0,4.0586,4.0427,4.0789,4.0796,4.0799,4.0967,4.097,4.0973,4.0936,4.0931,4.0926,4.0922,4.1105,4.1117,4.1129,4.1302,0,0,4.1166,4.1171,0,0,0,0,0,0,0,0,4.0576,4.0599,4.0793,4.0796,4.0799,4.0924,4.0907,4.1084,4.0938,4.0884,4.0925,4.0919,4.1053,4.1069,4.1114,4.1311,4.1319,4.1167,4.1174,4.1179,4.1183,0,0,0,0,0,0,0,4.0565,4.0592,4.086,4.0796,4.08,4.0791,4.0809,4.094,4.0994,4.0888,4.0886,4.0908,4.1054,4.1102,4.1118,4.1322,4.1167,4.1177,4.1185,4.1189,4.1666,4.1671,0,0,0,0,0,0,4.055,4.0582,4.0854,4.0865,4.0673,4.0801,4.0822,4.0889,4.0993,4.1004,4.0912,4.0905,4.1084,4.1104,4.1124,4.1331,4.1179,4.1191,4.1198,4.1661,4.1667,4.1673,0,0,0,0,0,0,4.0542,4.0575,4.0847,4.0723,4.0757,4.0813,4.0888,4.0895,4.0943,4.101,4.102,4.0951,4.1081,4.1107,4.1257,4.1337,4.1196,4.1207,4.1654,4.1663,4.167,4.1747,0,0,0,0,0,0,4.0532,4.0572,4.0639,4.0725,4.0764,4.0977,4.0893,4.0902,4.0964,4.0957,4.105,4.106,4.1079,4.1239,4.1269,4.1351,4.1216,4.1647,4.1658,4.1668,4.1738,4.1757,4.1773,0,0,0,0,0,4.0518,4.0655,4.0642,4.0675,4.0848,4.0982,4.1004,4.1022,4.097,4.1037,4.108,4.1057,4.1323,4.1255,4.1288,4.1375,4.1642,4.1655,4.1667,4.173,4.1753,4.1773,0,0,0,0,0,0,4.0578,4.0666,4.0653,4.0822,4.0894,4.0975,4.1061,4.1047,4.1137,4.1127,4.1146,4.1168,4.1319,4.1362,4.1285,4.1546,4.1476,4.1495,4.1512,4.1535,4.1552,4.1538,4.1226,0,0,0,0,0,4.0611,4.0712,4.0783,4.0925,4.0962,4.1005,4.1064,4.1071,4.1148,4.1179,4.1232,4.1308,4.1408,4.1474,4.1571,4.1744,4.1762,4.182,4.1837,4.1852,4.1868,4.1959,4.1985,4.1713,4.1713,4.1713,0,0,4.068,4.074,4.0803,4.0938,4.0995,4.1099,4.1031,4.1145,4.1221,4.1196,4.134,4.1382,4.1468,4.1629,4.1703,4.1669,4.1947,4.1867,4.1878,4.1887,4.1974,4.2,4.2023,4.1722,4.172,4.1719,0,0,4.0857,4.0914,4.1036,4.1094,4.118,4.1208,4.1237,4.132,4.1346,4.149,4.1472,4.1564,4.1738,4.1798,4.1852,4.2048,4.203,4.2079,4.2172,4.2261,4.2282,4.2301,4.2368,4.2393,4.2095,4.2096,4.2096,0,4.0932,4.1087,4.1101,4.1215,4.1274,4.1254,4.1377,4.1433,4.1547,4.1588,4.1549,4.1763,4.182,4.1993,4.204,4.2086,4.2118,4.2068,4.2278,4.2297,4.2315,4.2379,4.2405,4.2101,4.21,4.21,4.2099,0,4.1173,4.128,4.1368,4.1476,4.1545,4.1664,4.1695,4.1764,4.1764,4.1795,4.1941,4.2007,4.2115,4.2157,4.216,4.233,4.2306,4.2273,4.2202,4.2345,4.2406,4.2431,4.2108,4.2106,4.2105,4.2104,0,0,4.1394,4.1506,4.1538,4.1585,4.1677,4.1761,4.1877,4.198,4.2037,4.2116,4.2213,4.2358,4.2326,4.2387,4.2396,4.2474,4.2622,4.243,4.2433,4.2461,4.281,4.2833,4.2861,4.261,4.2615,4.2619,4.2802,0,4.1578,4.1781,4.1796,4.198,4.2078,4.2059,4.2159,4.2227,4.2258,4.2346,4.2381,4.2483,4.2434,4.247,4.2547,4.2587,4.2692,4.2575,4.27,4.2704,4.2676,4.2894,4.292,4.3089,4.2826,4.283,4.2833,0,4.182,4.1903,4.2095,4.217,4.2212,4.2302,4.2396,4.248,4.2556,4.2573,4.2639,4.2636,4.2755,4.268,4.2843,4.2763,4.2815,4.2842,4.2849,4.286,4.2776,4.2908,4.3143,4.3168,4.2871,4.2868,4.2865,0,4.1958,4.2119,4.2253,4.2295,4.2387,4.245,4.2491,4.2561,4.2621,4.2704,4.2742,4.2839,4.2891,4.2965,4.2988,4.2932,4.3149,4.3077,4.3165,4.3165,4.3211,4.3207,4.3455,4.3248,4.3248,4.3247,4.3247,0,4.2161,4.2279,4.2316,4.2399,4.253,4.2546,4.2675,4.2712,4.2774,4.2863,4.2854,4.2938,4.2964,4.3053,4.3072,4.3201,4.3226,4.3243,4.3246,4.3242,4.324,4.3275,4.3263,4.3254,4.3252,4.3251,4.325,0,4.2338,4.2368,4.2513,4.2586,4.2607,4.27,4.2763,4.2842,4.2871,4.2984,4.3011,4.3057,4.3161,4.3191,4.3316,4.3329,4.348,4.3474,4.3454,4.3453,4.3538,4.3529,4.3816,4.3854,4.3624,4.3626,4.3628,0,4.2464,4.2554,4.2636,4.2693,4.2737,4.2831,4.2891,4.291,4.2973,4.3063,4.3131,4.3232,4.3314,4.348,4.3524,4.3619,4.3614,4.3708,4.3628,4.362,4.3612,4.3605,4.3613,4.3722,4.3725,4.3727,4.3728,0,4.2684,4.2693,4.278,4.287,4.2941,4.3015,4.3085,4.3133,4.3161,4.3233,4.3337,4.34,4.3525,4.3625,4.3721,4.3763,4.3751,4.3753,4.3778,4.3774,4.3758,4.3765,4.3492,4.3746,4.3745,4.3743,4.3742,4.3742,4.2838,4.2915,4.2983,4.3079,4.3133,4.3197,4.3274,4.3311,4.3398,4.35,4.3506,4.3618,4.3688,4.3814,4.3862,4.3949,4.3922,4.3959,4.3968,4.3976,4.3981,4.3745,4.3967,4.3967,4.3967,4.3966,4.3966,0,4.3055,4.3097,4.3184,4.3281,4.3355,4.3335,4.3411,4.3474,4.3572,4.3638,4.3718,4.3836,4.3932,4.3983,4.4078,4.4139,4.4135,4.4163,4.4158,4.4167,4.4002,4.397,4.4164,4.4164,4.4164,4.4164,4.4164,4.4164,4.3176,4.3304,4.3321,4.3475,4.3517,4.3625,4.3669,4.3728,4.378,4.3912,4.3991,4.4023,4.4082,4.4181,4.4268,4.428,4.4315,4.4346,4.4355,4.4199,4.4179,4.416,4.4129,4.4354,4.4354,4.4512,4.4513,4.4514]},{"header":{"parameterUnit":"m.s-1","parameterCategory":1,"la1":30.2991,"la2":30.254,"lo1":-89.0895,"lo2":-89.0444,"dy":0.0017,"dx":0.0017,"nx":28,"ny":28,"refTime":"2024-07-09T09:00:00:Z","depth":0,"parameterNumber":3,"parameterNumberName":"V-component_of_WINDS"},"data":[0,0,0,0,0,0,0,0,0,0,0,0,0,0,0,0,0,0,0,0,0,0,0,0,0,0,0,0,0,0,0,0,0,0,0,0,0,0,0,0,0,0,0,0,0,0,0,0,0,0,0,0,0,0,0,0,0,0,1.0822,1.0821,0,1.0794,1.0793,1.0793,1.0768,1.0768,1.0768,1.0768,1.0739,1.0738,1.0738,0,0,0,0,0,0,0,0,0,0,0,0,0,1.0852,1.0852,1.0822,1.0821,1.0821,1.0794,1.0793,1.0793,1.0768,1.0768,1.0768,1.0767,1.0739,1.0738,1.0738,0,0,0,0,0,0,0,0,0,0,0,0,0,1.0833,1.0851,1.0822,1.0805,1.0804,1.0794,1.0793,1.0793,1.0769,1.0768,1.0768,1.0767,1.0739,1.0738,1.0738,1.0741,0,0,1.0735,1.0735,0,0,0,0,0,0,0,0,1.0834,1.0832,1.0808,1.0806,1.0804,1.0784,1.0793,1.0776,1.0769,1.0782,1.0768,1.0767,1.0754,1.0752,1.0748,1.074,1.0739,1.0735,1.0735,1.0734,1.0734,0,0,0,0,0,0,0,1.0835,1.0833,1.081,1.0808,1.0806,1.0799,1.0796,1.079,1.0771,1.0781,1.0779,1.0776,1.0753,1.0749,1.0747,1.0738,1.0735,1.0735,1.0734,1.0734,1.0731,1.0731,0,0,0,0,0,0,1.0839,1.0834,1.0811,1.081,1.0819,1.0799,1.0795,1.0791,1.0771,1.0767,1.0776,1.0775,1.075,1.0748,1.0746,1.0748,1.0734,1.0734,1.0733,1.073,1.0731,1.0731,0,0,0,0,0,0,1.084,1.0838,1.0813,1.0821,1.0818,1.0799,1.0794,1.0791,1.0786,1.0767,1.0764,1.0775,1.075,1.0747,1.0742,1.0747,1.0733,1.0733,1.073,1.0731,1.0731,1.0753,0,0,0,0,0,0,1.0841,1.0838,1.084,1.0822,1.0817,1.081,1.0795,1.0791,1.0785,1.0783,1.0766,1.0762,1.0749,1.0744,1.0742,1.0745,1.0732,1.0729,1.073,1.0731,1.0752,1.0755,1.0757,0,0,0,0,0,1.0842,1.0847,1.084,1.0837,1.0819,1.081,1.0808,1.0793,1.0786,1.0787,1.0774,1.0763,1.0747,1.0743,1.0741,1.0745,1.0729,1.073,1.0731,1.0751,1.0754,1.0757,0,0,0,0,0,0,1.0867,1.0845,1.0836,1.0836,1.0825,1.0806,1.0808,1.0797,1.0788,1.0786,1.0768,1.0764,1.0761,1.0752,1.0749,1.0746,1.0736,1.0737,1.0752,1.0755,1.0757,1.076,1.0731,0,0,0,0,0,1.0872,1.0867,1.0848,1.0849,1.0844,1.0827,1.0823,1.0812,1.08,1.0795,1.0783,1.0771,1.0763,1.0759,1.0751,1.075,1.0746,1.0752,1.0754,1.0756,1.0756,1.0754,1.0757,1.0734,1.0734,1.0734,0,0,1.0883,1.087,1.0869,1.0854,1.0844,1.0839,1.0823,1.0819,1.0814,1.0795,1.0789,1.0779,1.0765,1.0763,1.0761,1.0756,1.0761,1.0757,1.0759,1.0758,1.0756,1.0758,1.076,1.0735,1.0734,1.0734,0,0,1.09,1.0891,1.089,1.0881,1.0866,1.0854,1.0854,1.0837,1.0829,1.0824,1.0808,1.0802,1.079,1.078,1.0774,1.0785,1.0774,1.0783,1.0795,1.0793,1.0795,1.0797,1.08,1.0802,1.0784,1.0784,1.0784,0,1.0916,1.0908,1.0891,1.0887,1.0881,1.0862,1.0861,1.0852,1.0836,1.0832,1.0826,1.0808,1.0798,1.0792,1.0795,1.079,1.0789,1.0785,1.0796,1.0798,1.0799,1.0802,1.0803,1.0785,1.0785,1.0785,1.0785,0,1.0927,1.0921,1.0923,1.0907,1.0901,1.0898,1.0881,1.0876,1.0865,1.0854,1.0848,1.0834,1.0822,1.082,1.081,1.0812,1.0809,1.08,1.0789,1.0802,1.0805,1.0806,1.0787,1.0786,1.0786,1.0786,0,0,1.096,1.0934,1.0935,1.0927,1.0909,1.0904,1.09,1.0889,1.0885,1.0874,1.0869,1.0858,1.0849,1.0842,1.083,1.0828,1.0837,1.0819,1.0818,1.0822,1.0838,1.0845,1.0847,1.0829,1.083,1.083,1.0839,0,1.0974,1.0966,1.0951,1.0947,1.0941,1.0923,1.0919,1.0907,1.0896,1.0889,1.0876,1.0868,1.0858,1.0853,1.085,1.0837,1.084,1.0836,1.0825,1.0824,1.0829,1.0848,1.0856,1.0865,1.084,1.084,1.084,0,1.0989,1.0979,1.0976,1.0957,1.0954,1.0951,1.0938,1.0932,1.0917,1.0909,1.09,1.0887,1.0881,1.0871,1.0861,1.0859,1.0853,1.0845,1.0845,1.0844,1.0833,1.0847,1.0868,1.0869,1.0842,1.0842,1.0842,0,1.1013,1.0998,1.0994,1.0988,1.0966,1.0964,1.0955,1.094,1.0934,1.0922,1.0918,1.0906,1.0899,1.089,1.0873,1.0868,1.0865,1.0854,1.0858,1.0858,1.0858,1.0859,1.0879,1.0855,1.0855,1.0855,1.0855,0,1.103,1.1028,1.1004,1.1001,1.0998,1.098,1.0977,1.0966,1.0953,1.0947,1.093,1.0925,1.0904,1.0896,1.0882,1.0876,1.0873,1.0866,1.0862,1.0867,1.0868,1.0863,1.0862,1.0855,1.0855,1.0855,1.0855,0,1.1056,1.1039,1.1033,1.1013,1.1008,1.1006,1.0989,1.0985,1.0972,1.0965,1.0962,1.0942,1.0931,1.0914,1.0898,1.0889,1.0885,1.088,1.089,1.0888,1.0892,1.0892,1.091,1.0911,1.0887,1.0887,1.0888,0,1.1068,1.1066,1.1045,1.104,1.1031,1.1024,1.1017,1.0998,1.0992,1.0974,1.0972,1.096,1.095,1.0934,1.0917,1.0905,1.0899,1.0906,1.0897,1.0901,1.0898,1.0898,1.0897,1.0908,1.0908,1.0909,1.0909,0,1.109,1.1082,1.1073,1.1061,1.1053,1.1043,1.1031,1.1028,1.1006,1.1,1.0989,1.098,1.0964,1.0952,1.0937,1.0927,1.0914,1.0912,1.0912,1.0917,1.0923,1.0919,1.0896,1.0911,1.0911,1.0911,1.0911,1.0911,1.1109,1.1106,1.1091,1.1081,1.107,1.106,1.1055,1.1041,1.1032,1.1017,1.1007,1.0996,1.098,1.0959,1.0949,1.094,1.0934,1.0935,1.0935,1.0935,1.0936,1.0924,1.0937,1.0937,1.0937,1.0937,1.0937,0,1.113,1.1119,1.111,1.1095,1.1087,1.1075,1.1062,1.1055,1.1047,1.1033,1.1023,1.101,1.0998,1.098,1.0966,1.0962,1.0956,1.0959,1.0959,1.0957,1.0943,1.0944,1.0965,1.0965,1.0965,1.0965,1.0965,1.0965,1.114,1.1135,1.1124,1.1113,1.1101,1.1091,1.1084,1.1074,1.1063,1.1049,1.1039,1.1028,1.1012,1.0997,1.0985,1.098,1.0975,1.098,1.0974,1.0961,1.0958,1.0956,1.0957,1.098,1.098,1.0988,1.0988,1.0989]}]]